This is the latest recevied weather packets stored in our database for station/object W6MAF. If no packets are shown the sender has not sent any weather packets the latest 10 day(s).
| Time | Temp. | Humidity | Pressure | Rain* | Wind** | Luminosity | Snow |
|---|---|---|---|---|---|---|---|
| 1788377699 | 25° C | 5% | - | 0 mm | 2.24 m/s, 191° | - | - |
| 1788377402 | 25° C | 4% | - | 0 mm | 1.79 m/s, 205° | - | - |
| 1788377105 | 25° C | 5% | - | 0 mm | 0 m/s | - | - |
| 1788376806 | 25° C | 5% | - | 0 mm | 0.89 m/s, 176° | - | - |
| 1788376509 | 25° C | 5% | - | 0 mm | 0.45 m/s, 228° | - | - |
| 1788376208 | 25° C | 4% | - | 0 mm | 0 m/s | - | - |
| 1788375910 | 25° C | 4% | - | 0 mm | 1.34 m/s, 191° | - | - |
| 1788375612 | 25° C | 4% | - | 0 mm | 0 m/s | - | - |
| 1788375314 | 24.44° C | 4% | - | 0 mm | 0.89 m/s, 183° | - | - |
| 1788375017 | 24.44° C | 4% | - | 0 mm | 4.47 m/s, 207° | - | - |
| 1788374783 | 24.44° C | 4% | - | 0 mm | 1.34 m/s, 205° | - | - |
| 1788374719 | 24.44° C | 4% | - | 0 mm | 1.34 m/s, 205° | - | - |
| 1788374418 | 24.44° C | 4% | - | 0 mm | 1.34 m/s, 225° | - | - |
| 1788374120 | 24.44° C | 4% | - | 0 mm | 0.45 m/s, 231° | - | - |
| 1788373823 | 24.44° C | 4% | - | 0 mm | 1.79 m/s, 214° | - | - |
| 1788373641 | 24.44° C | 4% | - | 0 mm | 1.79 m/s, 215° | - | - |
| 1788373640 | 23.89° C | 4% | - | 0 mm | 0.89 m/s, 204° | - | - |
| 1788373525 | 24.44° C | 4% | - | 0 mm | 1.79 m/s, 215° | - | - |
| 1788373227 | 23.89° C | 3% | - | 0 mm | 1.79 m/s, 233° | - | - |
| 1788372929 | 23.89° C | 4% | - | 0 mm | 0.89 m/s, 204° | - | - |
| 1788372629 | 23.89° C | 4% | - | 0 mm | 5.36 m/s, 207° | - | - |
| 1788372331 | 23.89° C | 4% | - | 0 mm | 7.15 m/s, 193° | - | - |
| 1788372033 | 23.89° C | 4% | - | 0 mm | 4.02 m/s, 193° | - | - |
| 1788371735 | 23.89° C | 4% | - | 0 mm | 0.89 m/s, 191° | - | - |
| 1788371438 | 23.33° C | 4% | - | 0 mm | 1.34 m/s, 153° | - | - |
* Rain latest hour (hover to see other rain measurements)
** Current wind speed in m/s (hover to see current wind gust speed)